Powrót do katalogu

COSMOS 2251 DEB

AktywnyLEO
NORAD 35716·DEBRIS·🇷🇺 Russia

Wystrzelony Jun 16, 1993 z Plesetsk Cosmodrome

Loading…

Następne Przeloty (najbliższe 24 godziny)

TLE

ŚwieżeSource: Space-Track

Epoka: Sep 12, 2026, 16:56 UTC

1 35716U 93036AQM 26255.70615137  .00000459  00000-0  96109-4 0  9990
2 35716  73.9947  29.7937 0088803 165.7669 255.2447 14.60382554916268

Śledź COSMOS 2251 DEB w czasie rzeczywistym z AllMySat

Download on the App Store